Location: ????????
(55.0097°N, 38.5678°E)
Time: 04:13:14
(UTC+00:00)

FENGYUN 3A - Visible Passes

Search period start: 18 July 2024 00:00
Search period end: 28 July 2024 00:00
Orbit: 822 x 834 km, 98.6° (Epoch: 17 July)

Date Brightness Start Highest point End Pass type
(mag) Time Alt. Az. Time Alt. Az. Time Alt. Az.
18 Jul 3.8 00:08:01 10° NNE 00:13:29 88° E 00:18:56 10° SSW visible
18 Jul 6.0 22:11:07 10° NE 22:13:45 14° E 22:16:24 10° ESE visible
18 Jul 4.0 23:49:39 10° NNE 23:55:05 67° ESE 00:00:29 10° S visible
19 Jul 4.4 23:31:20 10° NNE 23:36:38 50° E 23:41:54 10° S visible
20 Jul 4.8 23:13:05 10° NNE 23:18:08 37° E 23:23:09 10° SSE visible
21 Jul 5.2 22:54:55 10° NNE 22:59:34 28° E 23:04:13 10° SSE visible
22 Jul 5.6 22:36:53 10° NE 22:40:58 21° E 22:45:02 10° SE visible
23 Jul 3.7 00:16:26 10° NNE 00:21:54 82° WNW 00:27:20 10° SSW visible
23 Jul 5.9 22:19:04 10° NE 22:22:19 16° E 22:25:32 10° ESE visible
23 Jul 3.8 23:58:02 10° NNE 00:03:31 77° ESE 00:08:56 10° SSW visible
24 Jul 6.1 22:01:54 10° ENE 22:03:36 11° E 22:05:17 10° E visible
24 Jul 4.2 23:39:41 10° NNE 23:45:04 58° E 23:50:25 10° S visible
25 Jul 4.6 23:21:24 10° NNE 23:26:35 43° E 23:31:44 10° S visible
26 Jul 5.0 23:03:11 10° NNE 23:08:03 32° E 23:12:53 10° SSE visible
27 Jul 5.4 22:45:05 10° NE 22:49:28 24° E 22:53:50 10° SE visible
